Temp
64 65 64 63 51 48 45 50 53 57 56 60 63 59 58 60 58 50 69 76 77 76 76 75 73 75 76 76 75 75 76 77 77 78 77 77 77 77 77 76 76 76 77 78 77 76 75 74 73
60 68 63 55 45 39 42 49 53 57 59 63 64 64 62 59 68 67 67 74 78 78 76 76 71 73 75 75 75 75 76 76 77 77 77 77 76 77 77 76 76 76 77 78 76 75 74 73 73
66 68 55 49 43 40 43 51 53 60 63 60 59 61 61 60 67 67 71 73 76 77 76 73 69 74 74 74 74 75 75 76 75 76 77 77 76 76 75 75 75 76 76 76 74 73 73 72 72
63 60 56 46 43 49 51 52 56 58 61 63 59 56 62 66 66 69 73 74 73 73 73 71 71 74 74 74 75 75 74 75 76 75 76 76 76 75 75 75 75 75 74 74 72 72 72 71 71
60 54 45 43 45 49 53 58 58 56 55 57 59 56 57 66 69 71 70 72 70 72 73 72 69 72 74 75 74 75 74 75 75 75 75 75 75 74 74 74 74 73 72 72 73 72 71 70 70
53 51 42 39 43 50 53 57 58 55 55 59 58 55 56 67 67 68 69 69 70 71 73 74 69 67 69 71 71 72 72 74 74 74 74 74 73 73 73 73 72 71 72 72 71 71 70 69 69
49 45 40 40 45 49 52 58 55 52 54 55 57 53 56 64 66 67 65 65 65 66 67 70 71 71 66 66 66 67 67 68 68 70 71 71 71 71 71 70 71 71 71 71 70 69 68 68 69
52 47 42 42 43 45 52 55 57 56 53 63 60 52 51 60 66 66 63 63 64 65 64 66 69 67 65 65 63 64 64 65 65 65 64 63 65 67 67 66 69 70 69 69 68 67 67 67 67
55 43 40 43 46 46 55 53 58 58 54 56 59 57 59 64 66 62 59 58 58 61 61 62 66 66 66 64 63 62 63 63 63 63 62 62 63 66 67 64 66 68 68 67 66 66 66 65 64
48 40 43 50 48 46 52 52 52 52 53 53 55 59 62 62 60 57 55 56 56 57 59 60 61 64 64 65 63 63 63 62 62 63 62 62 61 60 62 61 62 64 64 66 66 65 63 59 55
50 43 49 51 52 53 52 52 54 50 47 48 48 53 58 57 56 55 54 54 55 55 58 58 59 61 64 62 61 62 61 60 61 61 61 61 59 58 58 57 56 55 56 57 58 56 55 55 55
43 53 53 54 54 52 49 52 50 49 50 54 52 55 55 54 54 54 52 53 53 55 57 58 57 58 61 61 60 61 60 59 59 59 60 59 58 57 55 54 56 54 54 53 53 53 54 54 56
45 48 53 54 54 51 53 47 47 49 51 53 57 58 54 54 53 53 53 53 52 53 55 56 56 57 59 63 60 60 60 59 59 58 58 58 55 54 53 53 55 54 54 53 52 52 53 53 54
47 48 49 51 52 51 48 46 48 47 49 53 56 53 51 53 51 50 50 49 50 53 53 56 57 57 58 61 61 60 60 59 59 58 57 55 54 53 52 52 52 55 56 55 53 52 52 51 52
48 42 45 47 50 48 48 44 44 47 49 51 52 49 51 51 49 47 48 48 49 50 52 54 57 59 57 58 63 62 60 60 59 58 57 55 54 53 52 51 50 51 53 55 55 53 52 51 52
41 40 34 47 49 48 48 36 47 47 45 46 47 43 48 48 47 46 48 47 48 48 50 53 56 55 56 62 62 62 61 60 59 58 56 55 54 53 52 50 50 51 51 51 54 54 52 51 49
37 29 34 42 48 46 43 38 47 49 47 45 44 42 46 45 45 45 46 46 46 46 47 49 51 51 54 60 60 59 59 59 59 57 56 55 53 53 51 50 50 50 50 50 51 52 52 49 46
30 30 36 34 42 43 40 39 44 48 46 44 42 41 42 43 42 45 45 46 45 45 46 48 50 51 52 56 58 57 56 56 56 55 54 53 53 52 50 49 49 50 49 48 49 50 51 50 48
36 32 30 36 45 40 36 38 41 45 45 42 41 39 40 42 43 44 44 43 43 45 45 49 50 50 50 50 55 55 54 54 53 53 53 52 52 51 50 49 49 49 48 47 48 48 49 48 49
35 31 30 37 42 41 38 38 44 45 45 42 40 39 40 41 41 43 42 41 41 41 43 49 49 49 48 49 53 54 53 52 52 52 51 51 51 51 51 49 48 48 47 47 47 48 46 47 49
33 31 31 32 37 38 35 30 36 43 41 42 41 42 41 40 39 40 41 39 39 39 40 48 49 49 48 48 51 53 53 52 51 50 49 50 50 50 49 49 48 47 47 46 46 48 48 46 48
30 38 37 35 30 22 34 17 31 39 37 37 39 37 38 39 40 40 39 38 38 38 40 44 48 48 49 48 47 48 48 47 48 49 49 49 50 49 49 49 48 47 47 46 47 48 47 48 46
34 39 36 34 28 25 26 19 27 37 33 34 36 37 36 38 39 38 38 40 39 38 37 38 41 45 47 47 46 46 46 47 48 48 47 47 47 48 48 47 47 46 46 45 45 45 46 47 47
41 35 33 31 27 9 25 24 24 29 35 34 35 35 38 37 38 39 40 40 38 37 37 37 38 40 41 43 45 44 44 45 45 47 46 46 46 46 46 46 46 46 45 44 44 45 45 46 46
36 27 10 10 9 11 27 24 28 35 36 37 35 34 35 37 36 37 37 37 37 36 37 39 37 38 38 39 39 41 43 44 43 44 46 46 46 46 45 45 45 45 45 44 44 45 45 45 44
30 28 13 3 8 16 28 19 28 34 38 38 38 36 36 35 37 37 37 37 37 37 37 37 37 36 37 37 37 38 39 41 42 43 42 43 44 46 47 46 46 45 45 44 44 43 43 44 43
30 23 32 13 10 10 21 27 34 34 34 35 35 35 34 35 36 37 36 38 38 38 38 37 37 37 37 38 37 36 37 37 37 39 41 41 42 44 44 46 45 45 44 44 43 42 42 42 43
31 34 19 15 2 1 16 23 23 30 33 33 33 34 35 36 36 37 38 39 40 40 40 39 39 37 37 38 38 37 36 36 36 36 36 37 38 40 41 42 44 45 44 43 43 41 41 41 41
24 20 24 24 21 7 5 18 29 32 32 31 33 35 35 36 36 38 39 39 41 41 41 40 39 38 37 37 37 37 36 36 35 33 33 34 36 36 37 39 41 42 44 43 41 41 41 40 40
30 28 26 13 14 18 14 21 37 34 32 33 34 36 37 37 37 39 39 39 39 40 40 39 39 39 39 38 36 36 36 35 34 33 33 32 31 33 35 36 37 38 39 41 41 40 40 40 39
MSLP
1015.32 1014.59 1014.42 1014.52 1015.70 1016.64 1017.01 1017.20 1016.02 1015.50 1015.24 1014.98 1014.69 1014.72 1014.95 1014.96 1015.16 1015.51 1014.65 1014.07 1013.83 1013.57 1012.57 1013.21 1013.23 1013.25 1013.28 1013.42 1013.79 1013.95 1013.86 1014.10 1014.11 1014.22 1014.44 1014.68 1014.76 1014.89 1015.12 1015.26 1015.38 1015.46 1015.44 1015.60 1015.82 1016.00 1016.29 1016.48 1016.56
1015.55 1014.85 1014.59 1015.42 1016.42 1017.44 1017.76 1017.23 1016.52 1016.05 1015.65 1015.00 1014.64 1014.42 1014.49 1015.15 1014.76 1014.74 1014.55 1014.21 1013.74 1013.52 1013.03 1013.28 1013.41 1013.40 1013.72 1013.63 1013.55 1013.89 1013.78 1014.22 1014.20 1014.25 1014.41 1014.64 1014.78 1014.77 1014.96 1015.19 1015.40 1015.52 1015.54 1015.62 1015.91 1016.25 1016.49 1016.67 1016.78
1015.54 1015.38 1016.10 1016.40 1016.97 1017.46 1017.36 1017.15 1016.73 1016.10 1015.41 1015.30 1015.08 1014.54 1015.03 1015.93 1015.51 1015.35 1015.34 1014.54 1014.14 1013.68 1013.59 1013.67 1013.81 1013.73 1013.68 1013.66 1013.83 1013.54 1013.78 1014.26 1014.31 1014.38 1014.36 1014.63 1014.82 1014.82 1014.94 1015.08 1015.32 1015.52 1015.64 1015.73 1016.11 1016.36 1016.44 1016.86 1017.01
1015.77 1015.73 1016.35 1016.80 1017.48 1017.30 1017.23 1017.09 1016.64 1016.38 1015.86 1015.70 1015.45 1015.75 1016.14 1016.29 1015.86 1015.56 1015.08 1014.39 1014.28 1014.14 1014.11 1013.68 1013.49 1013.59 1014.03 1013.98 1013.90 1014.04 1013.63 1013.91 1014.32 1014.44 1014.42 1014.51 1014.70 1014.82 1014.96 1015.12 1015.26 1015.44 1015.70 1016.03 1016.41 1016.49 1016.44 1017.07 1017.23
1016.13 1016.68 1017.19 1017.43 1017.25 1017.50 1017.16 1016.89 1016.74 1017.06 1016.74 1016.49 1016.02 1016.40 1016.79 1016.51 1016.00 1015.51 1015.13 1014.92 1014.69 1014.43 1014.19 1014.44 1013.92 1013.74 1013.97 1014.35 1014.24 1014.34 1013.95 1014.02 1014.27 1014.28 1014.40 1014.52 1014.59 1014.79 1014.95 1015.15 1015.34 1015.66 1015.94 1016.23 1016.42 1016.67 1016.94 1017.24 1017.42
1017.07 1017.40 1018.12 1018.18 1017.84 1017.51 1017.30 1017.11 1017.11 1017.35 1017.39 1016.98 1016.73 1016.78 1017.19 1016.72 1016.06 1015.86 1015.45 1015.47 1015.12 1014.81 1014.59 1014.39 1014.22 1014.34 1014.22 1014.45 1014.61 1014.67 1014.29 1014.01 1014.12 1014.21 1014.44 1014.45 1014.56 1014.63 1014.90 1015.19 1015.53 1015.86 1016.12 1016.40 1016.65 1017.00 1017.32 1017.53 1017.67
1017.88 1018.25 1018.72 1018.27 1017.94 1017.60 1017.58 1017.29 1017.60 1017.73 1017.58 1017.44 1017.35 1017.33 1017.41 1017.14 1016.68 1016.28 1016.44 1016.14 1015.82 1015.56 1015.15 1014.65 1014.44 1014.24 1014.61 1015.19 1014.80 1014.86 1014.73 1014.58 1014.77 1014.83 1014.80 1014.76 1014.63 1014.65 1015.05 1015.42 1015.62 1015.95 1016.36 1016.70 1017.03 1017.31 1017.62 1017.77 1017.94
1017.86 1018.69 1018.70 1018.54 1018.49 1018.52 1018.09 1017.90 1017.86 1017.93 1017.86 1017.26 1016.98 1017.61 1018.25 1017.99 1017.11 1016.77 1016.94 1017.01 1016.78 1016.31 1016.14 1015.57 1014.86 1015.13 1015.53 1015.20 1015.45 1014.47 1015.39 1016.02 1015.78 1015.89 1016.40 1016.11 1015.33 1015.05 1015.27 1015.76 1015.77 1015.87 1016.62 1017.03 1017.42 1017.69 1017.94 1018.03 1018.20
1017.71 1018.78 1019.20 1019.05 1018.86 1019.15 1018.71 1018.64 1018.31 1017.85 1017.93 1017.93 1018.08 1018.30 1018.60 1017.97 1017.38 1017.37 1017.63 1017.80 1017.73 1017.43 1016.93 1016.59 1015.47 1015.84 1015.82 1015.70 1015.69 1015.40 1014.80 1015.84 1016.72 1016.54 1016.74 1017.18 1016.64 1015.62 1015.56 1016.27 1016.49 1016.65 1016.80 1017.24 1017.71 1018.07 1018.34 1018.44 1018.51
1018.47 1019.29 1019.40 1019.21 1019.28 1019.45 1019.15 1019.25 1019.26 1018.93 1018.83 1018.68 1018.40 1018.15 1017.99 1017.94 1018.47 1018.78 1018.82 1018.92 1018.67 1018.38 1017.82 1017.36 1016.82 1016.36 1016.07 1015.99 1015.89 1015.58 1016.06 1015.60 1016.33 1017.09 1016.85 1016.56 1017.29 1017.45 1016.51 1016.88 1017.23 1017.29 1017.39 1017.62 1017.92 1018.25 1018.59 1018.78 1018.91
1019.20 1019.39 1019.40 1019.53 1019.33 1019.43 1019.76 1019.84 1019.77 1019.57 1019.38 1019.33 1019.30 1019.10 1018.82 1019.02 1019.31 1019.64 1019.84 1019.80 1019.56 1019.26 1018.61 1018.30 1017.77 1017.26 1016.43 1016.26 1016.02 1016.18 1016.14 1016.29 1016.50 1016.21 1016.72 1016.70 1016.33 1017.31 1018.74 1017.76 1018.43 1018.21 1018.15 1018.34 1018.59 1018.76 1018.92 1019.02 1019.14
1019.72 1019.71 1019.57 1019.61 1019.87 1020.03 1020.19 1020.06 1020.09 1019.84 1019.59 1019.30 1019.22 1019.13 1019.37 1019.82 1019.96 1020.10 1020.38 1020.33 1019.95 1019.50 1019.05 1018.51 1017.94 1017.55 1016.73 1016.35 1016.30 1016.19 1015.93 1016.26 1016.18 1016.05 1016.48 1016.04 1016.13 1016.87 1019.00 1020.23 1018.97 1019.14 1018.94 1019.00 1019.18 1019.24 1019.32 1019.44 1019.44
1019.99 1020.17 1020.12 1019.86 1019.84 1019.94 1020.09 1020.26 1020.35 1019.98 1019.57 1019.34 1019.19 1019.23 1019.81 1020.11 1020.41 1020.57 1020.68 1020.63 1020.42 1019.89 1019.33 1018.76 1018.07 1017.54 1017.01 1016.17 1016.27 1016.34 1016.13 1016.03 1016.27 1016.71 1016.88 1016.64 1016.62 1017.18 1018.78 1019.92 1019.46 1019.21 1019.42 1019.37 1019.69 1019.84 1019.88 1019.98 1019.99
1020.54 1020.33 1020.14 1019.96 1019.84 1019.86 1020.12 1020.38 1020.48 1019.84 1019.60 1019.43 1019.47 1019.77 1020.28 1020.49 1020.99 1021.13 1021.15 1021.06 1020.65 1020.28 1019.60 1018.88 1018.18 1017.50 1017.00 1016.47 1015.97 1016.20 1016.13 1016.13 1016.36 1016.60 1017.04 1017.05 1017.36 1017.62 1018.78 1019.64 1019.89 1019.66 1019.61 1019.78 1019.90 1020.43 1020.35 1020.60 1020.75
1020.79 1020.75 1020.38 1019.81 1019.82 1020.22 1020.30 1020.41 1020.42 1019.85 1019.71 1019.83 1020.18 1020.41 1020.68 1021.10 1021.50 1021.94 1021.88 1021.55 1021.08 1020.61 1019.90 1019.04 1018.24 1017.42 1017.15 1016.34 1015.66 1015.68 1016.20 1016.27 1016.39 1016.80 1017.10 1017.14 1017.96 1017.90 1018.21 1019.19 1019.88 1020.21 1020.08 1019.75 1020.13 1020.73 1021.04 1021.10 1021.25
1021.54 1021.51 1021.42 1020.40 1020.15 1020.53 1020.71 1020.76 1020.34 1020.22 1020.16 1020.34 1020.52 1020.90 1021.23 1021.83 1022.22 1022.27 1022.22 1022.04 1021.47 1020.94 1020.27 1019.47 1018.66 1017.85 1017.31 1016.24 1015.51 1015.58 1015.77 1016.39 1016.48 1016.67 1017.14 1017.16 1017.91 1018.18 1018.07 1018.96 1019.68 1019.81 1020.51 1020.14 1020.47 1020.97 1021.59 1021.79 1021.76
1022.38 1022.48 1022.02 1021.24 1020.82 1020.98 1021.24 1021.00 1020.63 1020.42 1020.58 1020.90 1021.08 1021.47 1021.76 1022.32 1022.70 1022.85 1022.77 1022.51 1022.01 1021.48 1020.78 1019.79 1019.02 1018.37 1017.74 1016.62 1016.08 1016.03 1015.92 1016.09 1016.62 1016.74 1016.88 1017.49 1018.03 1018.33 1018.30 1018.69 1019.66 1019.59 1020.00 1020.53 1020.61 1020.76 1021.72 1022.02 1022.34
1023.37 1023.29 1022.93 1022.39 1021.77 1021.54 1021.57 1021.21 1021.14 1020.76 1020.97 1021.26 1021.48 1021.92 1022.36 1022.67 1023.34 1023.29 1023.23 1023.00 1022.49 1021.83 1021.19 1020.40 1019.49 1018.87 1018.23 1017.30 1016.73 1016.61 1016.57 1016.60 1016.78 1016.86 1016.96 1017.56 1017.91 1018.45 1018.75 1019.20 1019.99 1019.92 1020.42 1021.13 1021.00 1021.35 1021.68 1021.95 1022.52
1023.92 1023.72 1023.63 1022.96 1022.19 1022.14 1022.05 1022.08 1021.42 1020.65 1021.00 1021.41 1021.97 1022.68 1023.00 1023.30 1023.70 1023.73 1023.80 1023.54 1023.05 1022.29 1021.61 1020.92 1020.29 1019.63 1018.94 1018.20 1017.33 1017.14 1017.23 1017.29 1017.24 1017.31 1017.52 1017.72 1018.04 1018.31 1018.97 1019.27 1019.87 1019.93 1020.37 1021.38 1021.31 1021.50 1021.55 1022.33 1022.49
1024.38 1024.28 1024.07 1023.32 1022.87 1023.00 1022.43 1022.31 1021.44 1020.96 1020.91 1021.13 1022.53 1023.16 1023.62 1023.93 1024.13 1024.26 1024.34 1024.11 1023.61 1023.00 1022.24 1021.50 1021.02 1020.33 1019.59 1019.04 1018.41 1017.91 1017.75 1017.82 1017.83 1017.87 1018.05 1018.17 1018.43 1018.58 1018.85 1019.15 1019.81 1020.07 1020.40 1021.13 1021.41 1021.50 1021.94 1022.02 1022.09
1024.72 1024.98 1024.98 1024.99 1024.28 1023.92 1023.48 1023.01 1022.11 1021.40 1022.02 1022.47 1022.91 1023.34 1023.80 1024.23 1024.60 1024.78 1024.75 1024.67 1024.14 1023.56 1022.92 1022.15 1021.61 1021.00 1020.31 1019.56 1018.94 1018.29 1018.10 1018.18 1018.36 1018.43 1018.56 1018.69 1018.82 1019.04 1018.96 1019.37 1019.77 1020.20 1020.28 1020.95 1021.65 1021.50 1021.72 1021.79 1021.94
1025.13 1025.30 1025.45 1025.65 1025.83 1025.95 1025.50 1024.72 1023.45 1022.33 1022.78 1023.14 1023.23 1023.49 1023.90 1024.35 1024.78 1025.00 1025.09 1025.02 1024.69 1024.23 1023.59 1023.00 1022.33 1021.70 1021.01 1020.31 1019.79 1019.56 1019.25 1019.07 1019.21 1019.00 1018.92 1018.96 1019.11 1019.27 1019.20 1019.62 1019.86 1020.33 1020.43 1021.00 1021.54 1021.66 1021.50 1021.88 1021.81
1025.34 1025.65 1025.97 1026.30 1026.82 1027.12 1026.55 1026.13 1023.88 1023.14 1023.25 1023.47 1023.54 1023.78 1024.17 1024.44 1024.78 1025.12 1025.27 1025.33 1025.15 1024.81 1024.38 1023.77 1023.24 1022.60 1022.01 1021.28 1020.73 1020.44 1020.28 1019.98 1019.69 1019.52 1019.45 1019.40 1019.50 1019.60 1019.60 1019.75 1019.90 1020.49 1020.57 1021.01 1021.40 1021.83 1021.55 1021.80 1022.01
1025.47 1026.03 1026.59 1027.15 1028.07 1028.63 1027.65 1026.96 1025.00 1023.92 1023.37 1023.21 1023.53 1024.08 1024.36 1024.63 1025.06 1025.20 1025.34 1025.45 1025.49 1025.26 1024.87 1024.41 1023.94 1023.49 1022.96 1022.36 1021.78 1021.36 1021.16 1020.88 1020.50 1019.96 1019.85 1019.84 1019.87 1019.98 1019.96 1019.96 1020.11 1020.52 1020.92 1021.23 1021.65 1021.83 1021.75 1021.98 1021.91
1026.13 1027.19 1028.40 1029.48 1030.04 1029.47 1027.62 1026.89 1024.58 1023.78 1023.51 1023.62 1024.05 1024.68 1024.84 1024.98 1025.29 1025.53 1025.60 1025.63 1025.63 1025.59 1025.41 1024.92 1024.63 1024.28 1023.79 1023.38 1022.89 1022.43 1022.03 1021.86 1021.49 1021.08 1020.56 1020.32 1020.19 1020.10 1019.93 1020.13 1020.41 1020.57 1020.76 1021.31 1021.69 1021.75 1021.93 1021.96 1021.89
1026.97 1028.08 1029.83 1031.30 1031.78 1029.85 1028.49 1026.62 1024.75 1023.90 1023.91 1023.79 1023.78 1024.70 1025.43 1025.66 1025.62 1025.70 1025.63 1025.74 1025.84 1025.71 1025.50 1025.37 1025.14 1024.85 1024.48 1024.11 1023.74 1023.34 1022.94 1022.60 1022.47 1022.18 1021.50 1021.70 1021.19 1020.74 1020.04 1020.06 1020.45 1020.67 1020.93 1021.34 1021.58 1021.68 1021.99 1021.92 1021.83
1027.63 1028.59 1029.56 1031.10 1032.16 1031.33 1028.77 1026.46 1024.92 1024.08 1024.26 1024.17 1024.59 1025.14 1025.48 1025.66 1025.70 1025.75 1025.80 1025.76 1025.74 1025.75 1025.72 1025.54 1025.44 1025.32 1024.97 1024.73 1024.40 1024.05 1023.73 1023.39 1023.30 1023.09 1022.79 1022.41 1022.09 1021.68 1020.97 1020.34 1020.56 1020.68 1020.88 1021.16 1021.36 1021.43 1021.72 1021.96 1021.87
1028.02 1029.08 1030.31 1032.04 1033.25 1032.23 1029.46 1027.36 1025.75 1025.02 1024.68 1024.82 1025.17 1025.35 1025.44 1025.45 1025.61 1025.67 1025.70 1025.70 1025.63 1025.68 1025.71 1025.64 1025.56 1025.53 1025.43 1025.12 1024.80 1024.66 1024.49 1024.22 1023.96 1023.85 1023.78 1023.51 1022.92 1022.58 1022.01 1021.48 1020.96 1020.63 1020.96 1021.23 1021.35 1021.47 1021.75 1021.76 1021.87
1028.88 1029.73 1031.02 1032.13 1032.96 1032.74 1031.19 1027.39 1025.66 1025.49 1025.78 1025.88 1025.78 1025.60 1025.21 1025.11 1025.21 1025.32 1025.57 1025.69 1025.68 1025.85 1025.87 1025.81 1025.75 1025.65 1025.61 1025.46 1025.23 1025.04 1024.91 1024.73 1024.48 1024.32 1024.15 1023.98 1023.72 1023.31 1022.74 1022.38 1021.91 1021.63 1021.39 1021.26 1021.41 1021.58 1021.70 1021.87 1021.82
1029.24 1030.08 1031.14 1032.72 1033.12 1032.57 1031.06 1026.93 1026.09 1026.13 1026.26 1026.32 1026.39 1025.90 1025.29 1024.75 1025.02 1025.22 1025.54 1025.76 1025.71 1026.02 1026.22 1026.38 1026.18 1026.15 1026.07 1025.85 1025.58 1025.39 1025.31 1025.25 1025.03 1024.79 1024.61 1024.38 1024.11 1023.74 1023.33 1023.14 1022.71 1022.46 1022.17 1021.72 1021.62 1021.74 1021.67 1021.79 1021.87
Wind_Speed
12 11 3 5 6 6 6 3 2 13 6 4 3 1 4 3 3 1 5 9 5 1 5 4 6 6 6 10 5 4 4 0 2 7 8 8 8 9 9 9 8 10 14 14 14 13 11 11 10
6 8 5 2 6 5 2 2 9 5 3 5 6 8 7 3 6 3 6 8 8 3 4 4 5 5 5 1 6 5 5 2 1 4 8 8 8 9 10 11 9 10 12 14 14 13 12 11 10
6 5 4 4 3 4 4 4 6 7 7 4 4 2 4 7 7 4 6 8 6 5 5 6 3 3 4 2 3 4 2 4 4 4 6 8 8 8 9 9 9 10 11 14 15 13 13 11 10
4 6 5 5 3 5 5 4 6 6 6 9 4 5 4 3 3 6 7 9 8 7 1 5 6 2 2 8 5 8 8 5 6 6 6 7 8 8 9 9 9 10 13 15 13 13 14 12 10
4 3 4 2 3 3 6 5 6 6 5 7 4 6 4 3 3 6 7 8 8 7 6 7 4 1 3 7 8 9 6 6 7 6 7 7 9 11 11 13 16 16 15 14 14 14 14 12 11
5 4 5 2 2 4 5 6 4 6 5 7 6 5 2 4 7 8 8 10 11 9 10 7 8 10 6 6 11 11 6 5 6 5 7 9 12 15 16 17 16 15 15 16 15 15 14 13 12
3 4 2 1 4 5 3 4 5 3 5 5 5 5 1 11 9 8 11 9 11 11 12 8 6 7 12 13 17 19 22 17 17 8 5 7 11 14 16 14 17 17 16 16 16 15 14 13 12
4 4 2 3 2 3 1 3 2 5 3 6 1 3 6 6 9 9 9 11 12 11 12 14 10 10 9 9 15 22 22 22 20 21 25 28 10 12 10 9 14 18 17 17 16 15 13 13 12
4 5 3 3 4 2 7 5 7 3 4 4 5 6 4 9 13 13 9 10 9 10 9 13 9 7 5 5 6 11 19 17 15 13 15 11 14 6 10 9 12 15 18 18 16 15 13 12 10
4 4 3 2 3 3 5 7 7 5 7 6 7 8 11 11 12 12 11 10 11 13 13 11 11 9 5 3 3 6 6 8 7 3 7 10 11 14 7 12 12 15 15 16 15 13 11 7 4
5 3 2 4 4 5 6 8 6 6 4 2 2 5 9 9 10 9 9 7 8 7 11 10 10 8 4 1 1 1 1 3 5 7 5 7 11 10 10 4 3 4 7 4 5 5 4 6 4
3 4 3 3 3 3 4 5 8 4 5 3 3 3 4 8 7 8 8 9 11 11 11 12 11 8 8 2 1 2 3 2 2 4 2 8 6 11 5 5 3 3 3 5 4 3 5 6 6
1 4 5 6 6 3 4 4 5 9 6 2 4 6 6 7 6 7 7 7 7 11 11 12 11 10 7 4 2 2 3 3 4 4 3 4 7 10 6 1 3 4 3 4 5 4 4 5 6
3 4 7 6 5 3 3 4 4 2 1 5 5 4 6 8 8 7 8 7 8 9 12 11 11 10 9 6 4 3 3 5 3 4 3 6 7 9 8 5 5 5 4 3 5 4 4 4 5
3 4 7 5 5 3 2 6 5 4 2 4 6 5 7 9 9 8 7 7 7 7 10 13 13 12 10 9 4 3 3 3 4 4 5 9 7 11 12 8 6 5 5 6 5 5 4 5 5
2 3 6 5 6 2 6 7 5 3 1 3 4 4 7 8 7 7 8 7 8 8 11 12 12 12 14 10 3 3 4 3 3 4 4 6 5 6 9 8 7 7 3 5 3 4 3 3 4
5 1 2 5 0 2 2 7 6 4 5 7 5 4 7 7 9 8 9 8 8 8 9 11 11 12 14 10 4 5 4 3 3 3 5 6 7 6 7 7 7 8 5 3 2 3 3 3 4
1 3 5 4 3 3 6 12 7 8 5 9 5 5 7 8 7 8 9 9 8 8 8 8 9 12 13 9 3 3 4 4 3 2 5 7 7 8 7 7 7 7 5 2 3 4 4 4 4
2 1 3 6 8 5 5 8 12 8 8 6 5 5 7 8 5 8 8 8 9 10 8 11 12 12 9 6 3 2 2 2 3 3 5 6 6 8 8 7 7 5 6 4 3 2 5 2 5
3 3 6 8 4 7 10 16 18 12 9 6 8 7 7 6 8 7 8 8 8 9 9 11 12 12 9 7 5 3 2 3 2 3 4 4 5 6 7 7 6 6 6 5 5 5 3 2 4
3 3 4 5 6 5 8 7 6 4 8 8 6 7 6 7 6 7 7 8 8 10 10 11 11 11 10 11 7 3 2 2 2 3 2 2 4 4 6 7 5 5 4 5 3 5 5 3 3
2 4 4 6 7 2 6 8 6 6 5 4 5 6 6 7 6 6 7 7 8 8 8 10 11 12 10 12 10 10 5 4 3 3 3 3 3 4 5 5 6 4 4 5 3 2 3 2 2
2 3 4 3 2 4 6 3 9 3 2 4 6 6 6 7 7 5 5 6 6 7 8 7 9 12 12 11 11 8 9 5 4 3 4 5 4 3 3 4 5 4 4 4 4 3 1 0 3
3 3 5 1 3 4 5 4 6 3 4 3 3 5 7 7 6 6 5 6 5 7 7 7 8 9 11 11 12 11 11 9 7 5 4 3 3 2 3 3 4 4 4 5 4 3 3 3 1
5 5 5 8 6 6 4 3 8 4 5 4 5 5 5 6 5 4 5 5 6 7 8 7 8 9 9 9 10 11 10 9 9 9 7 6 3 1 3 2 3 3 4 4 4 3 3 1 2
1 5 6 5 3 8 2 7 5 0 4 5 2 5 3 5 4 4 4 3 4 6 6 7 8 7 8 8 8 8 9 6 6 8 7 8 7 6 3 3 3 4 5 4 4 2 1 2 2
3 1 3 3 0 4 5 6 5 4 3 3 3 4 4 4 4 5 3 3 3 4 5 6 7 7 7 7 6 7 7 9 8 9 9 6 7 8 9 5 2 3 3 4 4 3 3 2 2
3 1 4 4 2 6 6 10 6 5 7 6 5 6 6 5 6 5 3 2 1 2 2 5 5 6 6 7 7 5 6 6 6 6 7 7 6 8 8 8 7 1 2 4 4 3 3 4 3
3 3 1 3 4 5 3 8 2 6 6 7 8 8 9 8 8 7 5 2 3 4 3 4 5 6 6 6 5 6 7 7 5 5 6 7 7 8 9 9 7 6 2 2 2 3 3 4 3
4 5 5 5 6 5 4 19 9 5 4 7 9 9 8 7 7 6 5 4 5 4 5 5 5 5 4 4 5 6 7 7 7 7 6 6 6 7 7 8 8 8 8 6 2 3 3 4 5
Wind_Direction
316 310 289 29 55 68 22 37 103 32 35 337 316 19 295 59 8 291 260 11 31 153 191 167 182 172 151 163 153 157 121 212 173 193 187 172 156 149 153 149 150 156 140 133 125 114 105 98 91
311 314 30 46 82 66 336 5 43 41 354 357 14 352 3 51 21 65 12 348 349 354 291 174 212 196 183 185 156 174 126 236 208 175 179 175 164 156 158 156 158 162 151 139 124 113 103 97 91
300 175 63 71 80 131 152 48 35 358 359 2 344 25 33 322 356 358 340 354 349 352 36 13 287 87 330 266 243 118 193 210 226 189 176 172 168 161 160 155 159 163 161 138 118 116 103 95 87
341 3 13 83 145 3 108 59 47 4 335 22 330 41 49 339 23 311 353 358 350 360 9 138 275 112 149 303 275 203 177 231 222 217 186 175 168 163 150 147 143 143 132 120 119 114 107 101 91
23 72 57 13 5 90 67 62 46 358 8 12 39 323 74 335 359 357 9 3 351 339 7 333 240 133 335 272 239 254 175 192 222 209 204 179 159 148 133 130 129 124 119 124 118 108 104 101 91
3 79 45 75 41 101 49 31 65 17 40 347 21 12 121 276 28 7 18 9 353 10 6 1 339 349 250 317 359 348 302 203 227 221 198 173 161 143 140 129 127 127 123 120 113 106 100 92 84
50 70 213 93 348 51 50 5 65 13 354 332 298 349 232 5 348 35 39 44 37 15 3 359 355 336 59 42 60 43 32 33 17 344 263 182 169 140 133 137 133 127 123 117 111 105 100 94 87
88 86 344 15 66 69 325 34 38 46 299 305 275 325 357 309 329 28 42 32 17 16 6 1 15 49 40 54 63 75 60 37 48 39 28 14 295 122 128 139 125 124 120 112 108 104 100 97 84
38 61 20 17 55 334 6 23 339 295 16 327 37 59 283 344 21 28 21 12 10 359 10 358 15 41 61 67 56 59 84 71 35 48 44 7 353 114 104 106 117 118 114 111 108 104 101 92 73
71 85 57 4 63 1 1 23 335 15 341 341 345 1 18 24 23 27 20 12 7 356 354 360 3 351 53 41 40 79 71 94 93 74 76 72 44 1 63 79 87 96 104 108 107 104 94 78 70
336 100 29 37 85 50 349 336 321 3 328 144 8 355 12 24 19 20 17 13 359 345 348 351 348 331 319 350 106 110 110 117 133 119 143 92 103 55 3 43 44 66 67 62 76 82 83 90 85
45 11 87 351 69 44 319 298 324 272 259 105 10 47 43 33 29 24 20 7 360 355 343 340 336 335 323 265 141 163 128 129 101 105 190 119 106 97 71 321 33 46 76 80 75 75 78 82 83
46 355 347 342 303 234 247 270 252 276 284 360 353 41 38 39 29 40 26 14 356 348 337 335 331 324 319 278 193 196 155 121 117 113 56 106 96 114 110 358 355 71 64 80 72 69 77 65 69
270 327 289 275 255 260 272 275 10 247 140 21 358 26 53 42 39 31 20 0 2 343 332 329 328 316 320 299 198 206 154 130 111 107 112 91 109 111 103 85 27 27 70 79 83 70 71 66 61
300 327 320 251 210 209 77 326 235 265 81 32 357 36 52 51 46 33 14 1 347 339 328 331 330 330 325 298 232 186 207 153 149 139 142 128 136 140 130 125 108 38 3 73 80 68 59 71 73
320 31 359 327 112 107 88 276 313 248 57 285 299 60 62 55 42 23 13 1 349 345 347 341 341 353 336 303 338 193 170 179 142 139 122 120 127 146 128 130 133 119 67 61 68 90 73 81 82
7 311 274 328 182 139 168 270 276 254 267 261 286 83 74 56 37 23 11 358 357 349 343 348 347 353 341 328 19 25 63 110 160 141 121 124 127 136 127 125 141 141 124 100 84 118 123 111 100
351 3 337 317 314 274 253 270 276 286 253 245 244 97 79 70 40 28 18 0 356 345 340 349 357 359 346 328 2 41 49 47 52 105 121 135 138 133 122 127 140 131 122 144 151 153 135 112 127
61 22 263 261 277 307 252 277 289 271 288 219 228 81 68 63 42 40 20 359 351 352 348 10 7 359 359 347 346 5 34 36 44 52 101 120 129 131 132 135 149 140 128 153 144 77 124 130 139
28 320 302 296 336 350 306 297 280 287 274 180 123 82 68 49 38 25 18 4 357 350 347 11 12 7 5 351 330 340 31 41 54 66 63 103 130 137 141 142 151 151 144 169 190 145 124 147 197
321 288 312 273 333 325 331 319 341 350 66 63 76 97 82 79 54 22 16 5 356 2 356 11 12 12 15 6 354 351 72 65 29 60 84 82 112 125 130 138 152 157 137 147 178 144 162 162 207
313 344 352 353 24 297 58 286 314 302 87 89 124 118 114 91 68 38 20 11 2 357 359 5 11 17 18 19 21 16 28 19 354 17 56 75 103 121 128 140 140 150 126 145 153 152 123 99 205
211 321 287 254 297 11 321 55 275 340 28 201 209 151 133 119 112 78 49 27 360 1 3 360 4 19 17 27 30 28 29 11 4 44 67 65 50 50 99 127 130 144 129 130 133 154 209 351 271
332 336 321 63 81 34 258 143 280 284 275 283 202 173 151 136 117 94 73 39 9 4 5 7 10 18 13 19 29 36 29 16 13 16 53 55 84 70 88 91 120 134 135 139 149 166 168 205 189
46 43 343 359 6 227 212 348 243 237 293 324 242 193 172 136 122 94 59 37 26 15 6 7 13 20 10 19 26 25 31 26 23 6 23 15 16 271 92 128 128 135 133 147 161 184 189 151 114
201 133 150 231 273 275 256 248 266 181 338 358 115 163 156 117 124 110 102 69 37 27 20 15 13 15 11 16 21 19 25 28 25 20 25 8 10 351 34 95 156 146 150 163 165 153 164 86 71
304 94 191 106 328 26 257 311 320 328 347 6 110 121 188 188 157 150 110 74 53 34 26 29 18 9 12 15 16 21 25 29 20 15 22 14 6 351 357 358 209 168 177 185 173 177 187 179 167
108 255 35 0 352 296 290 306 255 326 303 294 286 240 240 232 181 153 135 75 67 71 65 47 32 23 3 4 15 22 22 25 27 24 19 13 11 358 358 358 359 354 192 204 191 170 195 179 192
30 22 12 174 169 199 270 272 200 25 28 347 302 266 235 214 201 174 152 91 44 36 32 22 22 21 10 4 5 15 12 13 23 28 16 9 3 5 7 359 354 356 291 206 203 209 187 203 177
110 164 156 142 256 229 211 274 295 63 1 357 323 315 272 216 202 169 142 125 95 69 37 18 4 354 344 359 12 7 4 5 8 11 11 10 9 358 5 7 11 4 358 349 227 225 208 206 197